User: anonymous   Login
Location: Eyeline Observatory
(43.2182°N, 78.8632°W)
Time: 15:14:02
(UTC-04:00)
Language:

Vanguard 2 Rocket - Orbit

View from above orbital plane
View from above orbital plane
View from above satellite
View from above satellite

Ground track
Ground track

The orbit data is extracted from the following two-line orbital elements,

1    12U 59001B   18175.92398043 +.00000200 +00000-0 +95835-4 0  9994
2    12 032.9119 002.2433 1667829 232.2480 111.5143 11.44244473197089
Epoch (UTC): 24 June 2018 22:10:31
Eccentricity: 0.1667829
inclination: 32.9119°
perigee height: 553 km
apogee height: 3328 km
right ascension of ascending node: 2.2433°
argument of perigee: 232.2480°
revolutions per day: 11.44244473
mean anomaly at epoch: 111.5143°
orbit number at epoch: 19708

The dashed part of the orbit path shows where the satellite is in the earth's shadow,  

DLR